Weather Roundup
Issued by NWS

Current Version | Previous Version | Text Only | Print | Product List | Glossary On
Versions: 1 2 3 4 5 6 7 8 9 10 11 12 13 14 15 16 17 18 19 20 21 22 23 24 25 26 27 28 29 30 31 32 33 34 35 36 37 38 39 40 41 42 43 44 45 46 47 48 49 50
991
NZUS93 KARX 191210
HRRWXR

CURRENT HOURLY OBSERVATIONS ACROSS
MUCH OF THE UPPER MISSISSIPPI VALLEY
NATIONAL WEATHER SERVICE LA CROSSE WI
700 AM CDT MON AUG 19 2019


...SOUTHEAST MINNESOTA...


CITY           SKY/WX    TMP DP  RH WIND       PRES   REMARKS
ROCHESTER      FAIR      54  50  86 CALM      30.03S
ROCHESTER/MAYO FAIR      55  54  94 CALM      30.04S
WINONA         FAIR      54  54 100 N3        30.03R
AUSTIN         FAIR      55  48  76 CALM      30.03S
ALBERT LEA     FAIR      54  54 100 CALM      30.03S
DODGE CENTER     N/A     52  48  87 CALM      30.03S
PRESTON        FAIR      55  51  86 CALM      30.04S
OWATONNA       FAIR      52  52 100 CALM      30.03S
FARIBAULT      NOT AVBL
$$

...ELSEWHERE IN MINNESOTA...


CITY           SKY/WX    TMP DP  RH WIND       PRES   REMARKS
MINNEAPOLIS    FAIR      58  52  80 SW3       30.01R
INTNL FALLS    FAIR      55  47  74 SW7       29.85R
DULUTH         FAIR      55  46  71 W8        29.96R
RED WING       FAIR      52  52 100 CALM      30.01S
REDWOOD FALLS  CLEAR     53  51  93 S5        30.00R
MANKATO        FAIR      54  54 100 SE5       30.02S
WORTHINGTON    CLEAR     56  54  93 S6        30.03R
FAIRMONT       CLEAR     54  53  97 CALM      30.03R
$$

...SOUTHWEST WISCONSIN...


CITY           SKY/WX    TMP DP  RH WIND       PRES   REMARKS
LA CROSSE      MOCLDY    59  57  93 CALM      30.02R
PRAIRIE DU CHI FAIR      59  58  95 CALM      30.02R
BOSCOBEL       FOG       61  60  97 CALM      30.03R VSB<1/4
LONE ROCK      FOG       60  59  96 CALM      30.02R VSB 1/4
PLATTEVILLE    FAIR      60  60 100 N5        30.02R
FORT MC COY    FOG       50  50 100 CALM      30.04R VSB 1/4
CAMP DOUGLAS   FOG       50  50 100 CALM      30.02R VSB 1/4
MAUSTON-NEW LI FAIR      53  53 100 CALM      30.02R
VIROQUA        FAIR     N/A N/A N/A CALM      30.04R
WIS DELLS      FAIR      57  56  96 CALM      30.03R FOG
$$

...ELSEWHERE IN WISCONSIN...


CITY           SKY/WX    TMP DP  RH WIND       PRES   REMARKS
MILWAUKEE      FAIR      68  60  75 CALM      30.00R
MADISON        FAIR      62  60  93 CALM      30.02R
GREEN BAY      FAIR      58  57  97 CALM      30.01R
EAU CLAIRE     FAIR      53  51  93 CALM      30.02R
BLACK RVR FLS  FOG       49  49 100 CALM      30.03R VSB<1/4
MEDFORD          N/A     47  46  99 CALM      30.02S FOG
WAUSAU         FAIR      52  51  97 CALM      30.01R
WIS RAPIDS     FAIR      52  51  97 CALM      30.03R
MARSHFIELD     FAIR      53  51  93 NW3       30.02R
RICE LAKE      FAIR      47  32  55 CALM      30.02F
$$

...NORTHEAST IOWA...


CITY           SKY/WX    TMP DP  RH WIND       PRES   REMARKS
WATERLOO       FAIR      60  56  86 CALM      30.01R
DUBUQUE        MOCLDY    63  62  97 NE8       30.01R
DECORAH        FAIR      54  54 100 CALM      30.02R
MASON CITY     CLEAR     53  51  93 CALM      30.04S
CHARLES CITY   FAIR      55  55 100 NE3       30.02F
OELWEIN        CLEAR     59  59 100 NE6       30.02R
$$

...ELSEWHERE IN IOWA...


CITY           SKY/WX    TMP DP  RH WIND       PRES   REMARKS
DES MOINES     PTCLDY    66  59  78 NE8       29.99R
IOWA CITY      MOCLDY    71  66  84 NE8       29.99R
FORT DODGE     CLEAR     57  56  96 CALM      30.03R
MARSHALLTOWN   CLEAR     60  58  92 NE6       30.00R
CEDAR RAPIDS   MOCLDY    67  62  84 NE10      29.99R
$$

...NORTHERN ILLINOIS...


CITY           SKY/WX    TMP DP  RH WIND       PRES   REMARKS
CHICAGO-OHARE  FAIR      69  66  90 CALM      29.99R
CHICAGO-MIDWAY FAIR      73  69  87 CALM      29.99R
MOLINE         FAIR      69  66  90 E3        29.98R
ROCKFORD       CLOUDY    68  66  93 CALM      30.01R
PEORIA         FAIR      70  67  90 CALM      30.00R
$$

NOTE: "FAIR" INDICATES FEW OR NO CLOUDS BELOW 12,000 FEET WITH NO
SIGNIFICANT WEATHER AND/OR OBSTRUCTIONS TO VISIBILITY. WIND
SPEEDS ARE IN MILES-PER-HOUR.




USA.gov is the U.S. government's official web portal to all federal, state and local government web resources and services.